Location: ČR
(50.0000°N, 15.0000°E)
Time: 13:42:54
(UTC+00:00)

Explorer 7 - Pass Details

Date: 24 October 2021
Orbit: 483 x 675 km, 50.3° (Epoch: 27 November)

Event Time Altitude Azimuth Distance (km) Brightness Sun altitude
Rises 00:07:43 0° 280° (W) 2,793 - -48.1°
Reaches altitude 10° 00:09:56 10° 280° (W) 1,925 - -47.9°
Maximum altitude 00:14:22 83° 193° (SSW) 629 - -47.5°
Drops below altitude 10° 00:19:04 10° 106° (ESE) 2,036 - -47.1°
Sets 00:21:27 0° 105° (ESE) 2,969 - -46.9°
